Tracking 19827 objects as of 22-Aug-2019
HD Live streaming from Space Station
objects crossing your sky now

COSMOS 874

Track COSMOS 874 now!
10-day predictions
COSMOS 874 is classified as:


NORAD ID: 9591
Int'l Code: 1976-118D
Perigee: 1,471.5 km
Apogee: 1,522.5 km
Inclination: 74.0 °
Period: 115.8 minutes
Semi major axis: 7867 km
RCS: 0.6831 m2 (medium)
Launch date: December 7, 1976
Source: Commonwealth of Independent States (former USSR) (CIS)
Launch site: PLESETSK MISSILE AND SPACE COMPLEX (PKMTR)
aabbcc
Your satellite tracking list
Your tracking list is empty




NASA's NSSDC Master Catalog

Two Line Element Set (TLE):
1  9591U 76118D   19232.86140200 -.00000021  00000-0 -42463-4 0  9993
2  9591  74.0284 271.8685 0032419 137.6719 276.0023 12.43963717939319
Source of the keplerian elements: AFSPC